STARLINK-34347, 64226

Orbit data source: Space-Track

STARLINK-34347, 64226 is a payload satellite owned by SpaceX/Seattle (US) in LEO that was launched on Sat, 31 May 2025 UTC via an FALCON 9 launch vehicle from the Air Force Western Test Range (AFWTR). Payload-class satellites include a variety of spacecraft equipped with specific instruments for various scientific and technological missions. These include communications satellites like Starlink; space stations such as the ISS; scientific satellites like the Hubble; Earth observation satellites from companies like Planet Labs, Umbra, and HawkEye 360; GPS; miniature CubeSats for education and research; and military/defense satellites.

Loading next visibility...
Identifier
64226, 2025-117Z
Orbit
LEO
Country
Flag of USUS
Related business
Manufacturer
SpaceX/Seattle
Mission
Operational Commercial Communications
Bus & Motor
STARLINK V2MO, Unknown motor
Mass
575 kg wet, ~530 kg dry
Launch date (UTC)
2025-05-31 (1 year ago)
Launch vehicle
FALCON 9
Launch site
Air Force Western Test Range (AFWTR)
Object type
Payload
Rocket body
Debris
Shape & HBR
Box + 1 Pan, 17.7 m
Radar Cross Section
41.120 m², Large (>1 m²)

Expand to show TLE details & history
Last TLE update: 14 hours ago

TLE from 14 hours ago
0 STARLINK-34347
1 64226U 25117Z   26235.67728384  .00026514  00000-0  79342-3 0  9995
2 64226  53.1614 341.7366 0001403 206.4541 153.6390 15.34386221 70124
Epoch: 2026-08-23T16:15Z
TLE epoch observation values (Epoch: 2026-08-23T16:15:17.323Z)
Latitude
-0.00005°
Longitude
125.94448°
Altitude
464.506 km
Speed
7.635 km/s
True Right ascension
22h 46m 56s
True Declination
0° 00' 00"
Sunlit
Object was in full shadow at epoch
Visualization orbit readout
Latitude
Unknown
Longitude
Unknown
Altitude
Unknown
Speed
Unknown
Apparent Right ascension
Unknown
Apparent Declination
Unknown
Sunlit
N/A
Visualization observer readout
Local Sidereal Time
21:44:27
Azimuth
Unknown
Elevation
Unknown
Doppler factor
Unknown
Orbital elements
Apogee altitude
463.961 km
Perigee altitude
462.041 km
Semi-major axis
6,841.138 km
Eccentricity
0.00014
Inclination
53.1614°
RAAN
341.7366°
Arg. of periapsis
206.4541°
True anomaly
153.64614°
Mean anomaly
153.639°
Eccentric anomaly
153.64257°
Mean motion
3.83575 °/min
Orbital period
93.85 mins
BSTAR
0.00079342
Loading maneuver chart data...
Computing Atmospheric mass density...
Loading historical data...
Loading historical data...
Loading historical data...
Loading historical data...
Loading historical data...
Loading historical data...
Loading historical data...

Documentation

Showing up to 5 results
|